Date,TemperatureHighF,TemperatureAvgF,TemperatureLowF,DewpointHighF,DewpointAvgF,DewpointLowF,HumidityHigh,HumidityAvg,HumidityLow,PressureMaxIn,PressureMinIn,WindSpeedMaxMPH,WindSpeedAvgMPH,GustSpeedMaxMPH,PrecipitationSumIn
2013-1-14,59.3,50.5,39.3,51.0,44.5,36.9,92,80,70,30.23,30.03,7,3,13,0.20
2013-1-15,39.8,37.4,35.2,37.9,35.5,33.4,94,93,91,30.28,30.08,5,1,8,0.95
2013-1-16,48.8,41.5,34.3,45.0,38.8,32.7,94,90,78,30.10,29.82,7,2,10,0.13
2013-1-17,47.8,43.6,38.5,41.5,38.5,34.8,90,82,78,30.07,29.94,7,3,13,0.19
2013-1-18,40.9,34.0,26.9,25.1,21.8,15.7,87,63,38,30.45,30.39,4,1,13,0.11
2013-1-19,53.0,38.1,23.2,29.9,23.5,19.6,90,60,28,30.39,30.00,10,2,16,0.00
2013-1-20,54.7,45.0,34.3,31.6,22.0,7.6,67,41,26,30.03,29.87,13,5,24,0.00
2013-1-21,49.0,36.5,27.2,21.0,14.8,4.5,71,43,26,30.03,29.77,17,5,27,0.00
2013-1-22,28.1,20.2,15.4,7.4,-1.6,-7.1,50,38,25,30.26,29.91,11,5,20,0.00
2013-1-23,27.0,15.9,10.1,4.3,0.3,-2.9,73,51,27,30.32,30.19,10,3,17,0.00
2013-1-24,22.6,22.1,21.7,7.5,6.6,4.8,53,51,48,30.34,30.32,12,10,19,0.00
2013-1-30,67.0,61.7,55.3,60.3,57.1,53.2,95,85,77,29.71,29.21,15,6,26,2.39
2013-1-31,56.2,38.1,30.4,52.1,24.4,14.6,88,58,41,29.87,29.19,18,10,32,0.05
2013-2-1,33.6,26.8,20.1,26.4,13.8,0.9,88,58,40,30.16,29.74,14,8,24,0.00
2013-2-8,49.1,37.0,34.3,39.4,20.4,-99.9,71,57,55,29.99,-32.77,14,-36,24,0.01
2013-2-9,44.6,34.0,25.7,21.4,16.0,11.4,70,50,26,30.35,29.99,10,4,27,0.00
2013-2-10,41.7,32.7,20.1,28.1,17.3,12.2,80,55,37,30.44,30.18,13,6,20,0.00
2013-2-11,63.2,51.4,36.9,50.0,37.9,16.6,92,64,22,30.18,29.74,16,8,27,0.01
2013-2-12,59.8,48.7,40.6,26.6,22.3,15.9,52,37,19,29.93,29.77,14,6,22,0.00
2013-2-13,44.2,38.2,32.9,33.8,28.4,22.0,94,70,43,29.89,29.59,7,2,11,0.07
2013-2-14,48.9,37.4,28.6,31.4,26.7,23.5,94,68,38,30.00,29.77,7,2,10,0.01
2013-2-15,55.7,39.7,26.1,37.3,29.6,22.3,92,71,39,30.03,29.86,12,3,17,0.15
2013-2-16,35.4,32.5,25.2,33.3,25.1,13.4,94,75,55,29.96,29.80,9,3,14,0.00
2013-2-17,27.2,22.6,18.8,18.0,6.1,1.8,79,49,35,30.22,29.85,12,6,21,0.00
2013-2-18,45.2,32.0,16.0,23.0,13.2,6.2,69,47,31,30.36,30.11,11,4,15,0.00
2013-2-19,51.7,42.1,35.8,39.7,28.4,15.9,85,60,36,30.11,29.69,15,6,31,0.04
2013-2-20,40.4,32.7,25.3,16.5,13.3,11.6,58,45,32,30.12,29.85,12,6,19,0.00
2013-2-21,41.9,30.6,20.9,18.8,15.4,11.7,68,54,37,30.30,30.10,7,3,12,0.00
2013-2-22,34.1,31.3,28.3,27.3,22.5,16.5,81,70,54,30.33,30.13,10,5,14,0.02
2013-2-23,51.0,39.0,31.2,40.4,33.7,27.3,90,81,66,30.14,29.78,7,1,14,0.00
2013-2-24,52.7,40.8,30.9,37.9,27.6,20.0,94,65,29,30.07,29.78,11,4,18,0.01
2013-2-25,41.7,32.7,22.5,22.5,18.9,15.7,78,58,41,30.19,30.07,6,2,10,0.00
2013-2-26,39.6,35.4,30.6,37.2,28.6,19.4,94,77,55,30.17,29.60,9,3,14,1.04
2013-2-27,49.3,42.5,36.4,39.6,33.8,30.5,95,73,52,29.68,29.55,11,5,19,0.01
2013-2-28,41.5,37.9,34.5,31.8,26.7,22.7,77,64,50,29.74,29.61,12,5,20,0.00
2013-3-1,39.0,35.8,32.5,28.0,24.9,21.7,76,65,53,29.88,29.74,9,4,13,0.00
2013-3-2,35.5,31.7,29.6,24.6,20.3,17.3,74,63,53,29.87,29.79,8,4,18,0.00
2013-3-3,39.9,30.4,23.6,18.9,15.9,12.6,66,55,41,29.95,29.80,10,5,16,0.00
2013-3-4,48.3,32.4,20.4,16.2,11.0,7.0,67,44,19,30.04,29.94,10,4,20,0.00
2013-3-5,46.5,37.2,27.3,31.7,24.7,15.0,93,62,40,30.05,29.65,11,3,17,0.05
2013-3-6,32.6,31.2,30.3,30.8,29.6,28.6,94,94,93,29.70,29.58,0,0,0,0.01
2013-3-7,41.3,37.5,34.2,26.5,25.2,23.9,71,61,53,30.18,30.12,10,4,19,0.01
2013-3-8,41.9,36.4,31.4,28.1,25.7,22.8,76,65,52,30.31,30.15,13,5,19,0.01
2013-3-9,51.2,36.3,23.3,27.7,24.2,20.3,89,65,31,30.37,30.26,4,1,6,0.00
2013-3-10,61.4,46.1,28.1,30.6,26.2,23.0,83,51,28,30.30,30.15,10,3,14,0.00
2013-3-11,57.1,51.7,45.6,49.6,34.2,21.9,83,53,31,30.18,29.82,12,6,24,0.01
2013-3-12,57.8,52.0,38.0,52.6,43.1,27.9,95,73,44,29.93,29.66,12,6,22,0.65
2013-3-13,45.6,38.1,31.0,28.4,23.2,14.7,77,56,34,30.08,29.88,14,6,26,0.65
2013-3-14,46.3,35.5,25.9,18.6,15.0,10.7,63,44,25,30.15,30.03,13,7,22,0.00
2013-3-15,59.2,44.7,31.0,33.8,24.3,15.6,54,45,37,30.10,29.78,13,5,22,0.00
2013-3-16,67.8,51.4,40.6,52.8,42.8,31.4,92,74,47,29.81,29.55,9,2,12,0.25
2013-3-17,43.0,36.2,32.1,39.4,34.1,29.8,94,92,87,30.21,29.81,5,2,8,0.08
2013-3-18,33.0,31.5,30.6,31.2,29.1,27.9,94,91,88,30.23,29.85,9,4,17,0.00
2013-3-19,56.4,43.4,32.5,37.7,23.8,2.5,95,56,15,29.95,29.74,17,7,28,0.41
2013-3-20,50.2,40.4,30.0,21.2,11.9,4.6,58,32,19,29.99,29.74,14,5,24,0.00
2013-3-21,35.7,30.0,23.9,27.3,13.9,6.6,84,52,34,29.93,29.73,11,6,21,0.00
2013-3-22,48.1,33.3,22.1,19.0,13.8,8.8,62,46,27,29.99,29.88,10,4,22,0.00
2013-3-23,55.7,37.9,23.4,23.0,18.6,12.4,78,50,23,30.03,29.87,7,2,13,0.00
2013-3-24,37.6,33.2,30.2,28.6,24.3,18.9,92,71,47,29.95,29.57,7,2,12,0.00
2013-3-25,38.8,33.4,29.3,32.9,28.4,24.3,93,83,63,29.70,29.49,8,3,15,0.40
2013-3-26,42.9,37.6,34.1,30.7,26.6,24.2,77,65,50,30.04,29.70,8,4,14,0.02
2013-3-27,44.5,37.5,29.5,28.3,24.9,22.1,77,61,44,30.16,30.03,12,5,20,0.00
2013-3-28,45.9,39.0,30.7,27.0,24.3,22.0,72,56,43,30.24,30.12,12,5,21,0.00
2013-3-29,55.0,43.9,30.4,30.3,26.2,21.7,80,52,28,30.26,30.11,7,2,14,0.00
2013-3-30,59.9,45.4,28.5,32.9,27.2,23.4,82,53,28,30.21,30.03,7,2,13,0.00
2013-3-31,58.7,49.8,41.8,48.4,38.3,27.3,89,67,39,30.03,29.71,11,5,17,0.00
2013-4-1,59.0,48.8,38.7,43.4,35.7,21.3,82,61,43,29.95,29.75,16,6,28,0.01
2013-4-2,49.4,40.5,32.7,21.2,14.2,6.8,53,36,18,30.14,29.95,11,5,18,0.00
2013-4-3,52.6,38.7,26.0,19.6,14.2,7.1,68,40,17,30.34,30.14,10,4,18,0.00
2013-4-4,43.5,34.6,26.4,32.0,20.0,13.7,92,58,32,30.37,30.02,11,3,16,0.18
2013-4-5,63.2,45.5,33.9,40.7,33.0,26.8,94,68,27,30.02,29.83,9,2,14,0.30
2013-4-6,56.4,46.2,31.9,31.9,21.9,12.7,78,43,19,30.25,30.02,11,4,15,0.00
2013-4-7,70.3,55.7,42.2,43.8,36.7,25.2,67,50,35,30.19,29.96,11,7,17,0.00
2013-4-8,78.3,64.4,44.9,50.1,44.7,39.6,82,52,29,30.05,29.90,9,3,16,0.00
2013-4-9,84.2,71.4,54.1,53.9,50.6,47.0,78,50,32,30.05,29.91,10,3,16,0.00
2013-4-10,88.5,75.2,57.7,57.0,52.2,48.8,76,47,26,29.95,29.76,11,4,18,0.00
2013-4-11,83.3,73.0,56.6,58.5,54.6,51.0,82,54,35,29.80,29.64,13,4,17,0.00
2013-4-12,76.3,67.5,57.6,62.1,53.4,37.6,93,64,34,29.69,29.51,12,7,21,0.84
2013-4-13,70.8,57.3,43.6,38.5,33.6,25.0,72,43,22,29.93,29.69,12,5,20,0.01
2013-4-14,73.3,59.4,42.1,41.3,36.3,28.5,71,44,28,30.05,29.92,14,4,23,0.00
2013-4-15,61.3,55.1,51.0,52.4,48.8,41.3,92,80,48,30.21,30.01,9,4,22,0.16
2013-4-16,70.3,61.3,53.6,59.7,55.6,51.6,93,82,67,30.24,30.09,12,6,18,0.05
2013-4-17,81.1,69.2,59.4,61.5,58.0,55.6,92,70,44,30.17,30.03,9,2,13,0.02
2013-4-18,74.0,65.4,59.5,62.0,57.4,54.2,90,77,52,30.10,29.91,12,6,18,0.01
2013-4-19,71.4,65.3,52.4,63.3,57.4,36.8,91,76,54,29.91,29.56,16,8,26,0.18
2013-4-20,58.9,49.7,40.3,37.7,28.5,22.0,67,46,26,30.28,29.75,10,5,19,0.04
2013-4-21,53.7,43.9,32.6,34.2,29.6,24.5,83,59,38,30.51,30.28,11,3,17,0.01
2013-4-22,55.6,46.6,34.6,36.9,29.7,16.8,80,54,24,30.50,30.30,11,5,17,0.01
2013-4-23,64.5,52.8,43.1,45.4,40.9,36.4,80,65,46,30.32,30.05,10,4,15,0.00
2013-4-24,75.5,61.6,44.9,57.2,49.0,41.6,89,66,38,30.06,29.77,13,5,24,0.00
2013-4-25,65.8,53.0,39.7,46.6,31.2,14.5,75,48,15,30.28,29.95,10,4,17,0.00
2013-4-26,65.6,52.4,35.7,38.4,33.5,27.0,79,51,30,30.41,30.27,9,2,13,0.00
2013-4-27,68.3,58.2,43.8,45.0,41.2,36.0,81,55,36,30.34,30.19,9,3,15,0.00
2013-4-28,58.2,53.2,50.3,48.8,46.3,43.7,88,78,61,30.20,30.05,11,4,18,0.05
2013-4-29,67.8,56.5,49.9,55.8,51.0,46.7,92,82,60,30.08,29.93,8,3,11,0.01
2013-4-30,62.9,56.4,52.5,54.0,52.4,50.5,94,87,72,30.22,30.00,11,3,14,0.01
2013-5-1,68.0,58.8,51.6,51.9,44.3,22.1,93,64,21,30.33,30.21,10,4,18,0.01
2013-5-2,67.5,58.2,48.3,46.5,42.1,35.9,79,56,36,30.33,30.24,11,4,18,0.00
2013-5-3,63.1,52.8,41.2,48.5,43.5,38.8,92,72,47,30.31,30.19,11,4,17,0.00
2013-5-4,59.9,51.9,41.8,47.9,42.3,37.0,84,70,57,30.25,30.10,10,5,17,0.00
2013-5-5,59.9,51.3,41.9,45.9,39.6,30.4,81,65,46,30.16,30.05,13,6,17,0.00
2013-5-6,58.6,53.5,48.8,56.1,50.2,45.1,93,89,74,30.09,29.90,13,4,21,1.17
2013-5-7,64.8,56.4,51.0,58.8,53.8,48.7,94,91,75,29.92,29.81,13,4,25,1.12
2013-5-8,60.1,53.7,48.2,54.0,51.0,46.6,95,91,77,29.95,29.89,5,1,8,0.23
2013-5-9,78.4,59.7,43.2,57.3,50.0,41.9,96,74,37,30.00,29.91,8,2,13,0.01
2013-5-10,81.5,66.3,51.2,61.1,54.8,48.7,92,70,39,30.00,29.82,12,3,20,0.24
2013-5-11,77.0,66.8,59.5,60.5,57.4,54.1,94,74,47,29.84,29.67,11,4,16,0.01
2013-5-12,62.5,56.5,46.2,55.3,36.9,25.4,78,50,28,30.00,29.72,10,5,19,0.00
2013-5-13,57.2,46.9,37.7,35.0,31.0,24.7,81,56,30,30.15,29.99,10,3,15,0.00
2013-5-14,68.8,52.3,32.9,41.5,35.2,29.9,90,57,28,30.20,29.97,9,3,16,0.00
2013-5-15,91.8,70.0,48.7,59.6,49.5,40.6,84,53,21,29.97,29.71,12,4,20,0.00
2013-5-16,83.4,72.3,64.5,62.7,55.6,49.9,83,57,41,29.91,29.77,12,4,30,0.42
2013-5-17,77.7,68.2,57.9,63.0,57.6,53.2,92,71,47,30.05,29.89,9,2,16,0.07
2013-5-18,66.1,62.5,59.8,62.4,59.2,57.5,93,89,83,30.12,30.04,9,3,15,0.06
2013-5-19,65.2,62.0,59.5,63.1,59.7,57.5,94,92,89,30.12,30.02,7,3,14,0.04
2013-5-20,77.5,68.4,62.1,67.8,63.5,59.9,95,85,65,30.05,29.92,9,3,12,0.03
2013-5-21,86.1,72.9,59.7,69.7,64.2,58.1,95,76,43,29.95,29.82,9,2,12,0.00
2013-5-22,86.6,72.9,62.4,68.4,64.1,59.0,94,76,41,29.89,29.76,12,2,16,0.24
2013-5-23,79.3,68.3,61.2,66.5,62.6,58.3,94,83,55,29.84,29.68,9,3,16,0.42
2013-5-24,61.4,56.4,44.6,59.0,44.8,32.9,92,66,46,30.14,29.72,14,6,23,0.01
2013-5-25,65.7,51.4,36.4,40.9,33.4,23.8,83,54,21,30.23,30.11,13,4,18,0.00
2013-5-26,72.3,57.9,41.6,41.9,37.0,29.6,84,49,21,30.22,30.09,6,2,11,0.00
2013-5-27,66.6,56.4,41.1,50.8,43.7,36.5,85,64,45,30.25,30.13,6,2,10,0.00
2013-5-28,84.3,70.8,54.2,64.3,57.1,49.8,85,63,38,30.15,30.01,9,4,15,0.00
2013-5-29,87.9,75.8,59.9,63.4,60.0,53.7,90,61,32,30.10,30.02,9,4,13,0.00
2013-5-30,86.3,75.9,60.1,66.8,61.2,54.4,91,63,36,30.15,30.06,9,3,16,0.00
2013-5-31,86.1,74.3,58.4,65.1,61.1,55.5,91,66,42,30.11,29.99,9,3,15,0.00
2013-6-1,86.4,75.4,62.1,70.3,62.9,58.3,88,67,48,30.00,29.88,11,3,16,0.06
2013-6-2,80.9,74.1,65.8,68.7,63.3,59.6,83,69,57,29.89,29.77,9,3,14,0.01
2013-6-3,79.8,70.8,64.7,66.3,62.7,59.3,94,77,56,29.92,29.77,5,1,9,0.14
2013-6-4,64.5,62.1,59.6,59.9,58.5,56.9,92,88,85,29.93,29.92,1,0,2,0.00
2013-6-6,62.9,62.2,61.1,61.4,60.6,59.4,95,95,94,29.84,29.79,4,1,7,1.47
2013-6-7,67.0,64.7,62.4,65.2,63.0,60.9,96,94,89,29.79,29.58,5,1,9,0.19
2013-6-8,82.1,68.7,58.5,62.9,59.3,48.4,96,75,32,30.03,29.73,7,2,9,0.03
2013-6-9,78.8,68.7,59.5,70.3,63.9,57.2,93,85,71,30.12,30.00,8,2,14,1.35
2013-6-10,80.3,69.6,63.1,70.6,66.5,60.9,95,90,67,30.03,29.75,12,3,16,1.45
2013-6-11,80.5,71.3,61.6,64.1,61.6,59.6,95,73,51,29.85,29.78,9,4,16,0.01
2013-6-12,88.5,77.4,65.8,70.9,65.7,60.0,84,68,50,29.86,29.74,8,3,15,0.00
2013-6-13,80.3,72.3,62.7,69.2,64.7,54.9,91,77,63,29.76,29.48,10,3,17,0.07
2013-6-14,74.7,66.1,58.3,56.5,54.0,51.5,83,66,49,29.98,29.65,9,3,15,0.00
2013-6-15,81.3,67.9,52.6,59.9,54.9,50.0,91,66,40,30.07,29.95,6,2,11,0.00
2013-6-16,82.7,71.2,58.6,66.4,61.2,54.8,88,72,53,30.00,29.88,10,3,15,0.01
2013-6-17,85.3,71.7,63.1,68.2,64.0,60.1,93,78,50,29.93,29.83,12,3,19,1.87
2013-6-18,73.8,66.4,61.6,66.8,63.3,59.6,95,90,70,29.89,29.76,8,1,12,0.36
2013-6-19,74.3,66.1,57.0,64.8,60.8,55.6,96,84,69,30.09,29.86,9,2,13,0.00
2013-6-20,75.5,69.6,64.3,63.9,62.6,60.5,94,79,65,30.19,30.09,10,5,18,0.00
2013-6-21,79.0,71.3,61.3,62.6,57.2,48.6,79,61,54,30.22,30.15,11,4,16,0.00
2013-6-22,83.4,72.2,60.8,68.1,63.2,55.3,91,74,54,30.19,30.07,9,3,16,0.00
2013-6-23,83.0,74.8,67.2,70.3,67.2,64.7,94,78,58,30.13,30.03,7,2,14,0.01
2013-6-24,88.0,75.3,65.6,71.1,66.8,61.6,94,77,42,30.10,29.98,10,2,18,0.29
2013-6-25,89.0,76.8,65.2,70.9,67.7,63.7,95,76,50,30.03,29.87,7,2,12,0.00
2013-6-26,89.0,75.5,66.7,70.9,67.8,64.3,93,78,53,29.89,29.77,8,2,14,0.02
2013-6-27,80.5,72.6,65.3,69.6,66.3,63.2,94,81,64,29.81,29.60,9,3,19,0.17
2013-6-28,88.8,78.8,69.3,68.3,63.8,57.4,82,62,36,29.62,29.42,12,5,21,0.00
2013-6-29,84.1,73.7,61.3,65.3,61.1,56.5,86,66,44,29.66,29.49,8,2,14,0.00
2013-6-30,82.0,73.1,65.3,71.3,66.3,62.0,91,80,66,29.79,29.63,9,3,16,0.24
2013-7-1,80.0,73.0,68.1,69.7,67.2,64.7,91,82,69,29.90,29.77,9,5,16,0.01
2013-7-2,74.0,71.7,68.9,69.4,68.0,65.8,92,88,83,30.09,29.90,8,4,17,0.70
2013-7-3,79.2,73.0,69.5,72.2,69.1,66.8,95,88,76,30.17,30.08,8,3,17,0.39
2013-7-4,83.6,76.2,70.4,72.7,69.9,67.8,94,82,65,30.19,30.10,8,4,17,0.05
2013-7-5,85.2,77.5,67.6,71.0,69.0,65.5,94,76,55,30.17,30.08,8,3,14,0.01
2013-7-6,87.0,77.8,68.4,71.7,68.1,65.2,92,74,51,30.15,30.03,9,3,15,0.00
2013-7-7,87.2,74.9,68.0,73.3,67.6,63.7,92,79,57,30.08,29.96,12,2,20,0.07
2013-7-8,82.6,73.8,64.6,69.6,66.0,62.8,95,78,56,30.09,30.02,6,2,10,0.04
2013-7-9,83.4,75.5,67.4,72.6,67.5,64.0,91,77,57,30.07,29.97,5,1,7,0.00
2013-7-10,86.9,74.6,69.7,72.9,69.1,66.0,93,84,59,29.99,29.85,13,1,20,0.06
2013-7-11,82.4,73.8,69.0,70.3,68.1,65.5,94,83,60,29.88,29.81,7,2,12,0.01
2013-7-12,69.1,65.7,63.6,66.0,62.9,61.6,94,91,83,30.02,29.85,7,2,12,0.98
2013-7-13,78.1,71.1,65.4,70.5,66.5,63.6,95,86,71,30.19,30.01,13,2,19,0.10
2013-7-14,83.3,76.5,71.0,70.3,68.6,67.0,91,77,61,30.28,30.18,8,4,15,0.00
2013-7-15,90.4,79.1,67.0,73.0,68.9,63.7,94,73,44,30.28,30.16,5,1,8,0.00
2013-7-16,90.1,79.8,68.8,75.0,70.7,66.4,93,75,57,30.23,30.12,7,2,10,0.02
2013-7-17,87.2,79.2,71.2,75.2,72.4,69.3,94,81,65,30.19,30.06,6,1,10,0.01
2013-7-18,91.3,79.9,70.2,76.5,72.3,68.4,94,79,55,30.10,29.97,7,1,11,0.00
2013-7-19,91.3,79.3,70.6,76.0,71.1,68.1,93,77,54,29.99,29.85,9,2,13,0.00
2013-7-20,88.7,78.9,71.3,72.5,69.5,65.2,91,74,51,29.88,29.79,11,3,17,0.00
2013-7-21,85.7,74.9,66.9,71.7,68.0,64.7,94,80,58,29.93,29.84,8,2,12,0.18
2013-7-22,82.1,74.3,68.6,74.2,70.0,67.1,95,87,73,29.90,29.71,9,2,19,0.64
2013-7-23,87.0,77.0,68.5,69.7,67.2,64.9,96,74,50,29.74,29.61,7,3,16,0.00
2013-7-24,81.5,72.7,66.7,70.3,66.0,59.0,90,80,63,29.86,29.64,6,1,10,0.10
2013-7-25,77.3,68.6,62.2,62.2,58.9,55.7,88,72,55,30.01,29.85,5,1,9,0.00
2013-7-26,78.5,69.1,56.7,64.8,60.4,54.4,93,75,53,30.06,29.96,7,2,12,0.00
2013-7-27,74.3,71.0,67.7,68.7,65.2,62.8,91,82,74,29.99,29.86,6,2,11,0.03
2013-7-28,82.5,73.4,66.0,67.6,64.3,61.0,92,75,50,29.95,29.83,7,2,13,0.01
2013-7-29,79.9,69.0,57.5,64.1,57.0,51.5,93,69,39,30.14,29.94,6,2,12,0.00
2013-7-30,78.0,68.4,55.2,63.0,57.9,52.6,92,71,48,30.19,30.09,7,2,11,0.00
2013-7-31,77.7,68.6,64.1,66.2,63.0,60.2,94,83,63,30.10,29.95,8,1,13,0.21
2013-8-1,81.8,71.5,65.3,69.5,66.1,63.3,95,84,60,29.95,29.79,6,2,13,0.17
2013-8-2,83.6,72.7,59.8,66.1,61.1,56.9,95,70,41,29.94,29.84,9,2,13,0.00
2013-8-3,81.8,69.9,62.1,68.0,62.5,59.1,91,78,52,29.94,29.87,4,1,11,0.05
2013-8-4,79.0,68.8,59.1,65.0,57.8,50.6,95,71,39,30.01,29.89,7,2,13,0.01
2013-8-5,77.3,65.9,52.5,61.3,56.3,49.9,92,72,46,30.08,29.95,9,2,13,0.00
2013-8-6,76.5,70.8,65.2,67.5,63.9,60.1,93,79,69,29.98,29.92,10,4,16,0.12
2013-8-7,80.9,72.9,67.7,70.2,67.7,65.9,95,84,67,30.00,29.94,7,4,13,0.00
2013-8-8,78.4,73.7,70.9,72.3,69.6,67.0,92,87,75,29.98,29.92,8,3,12,0.08
2013-8-9,88.6,78.6,68.9,72.1,69.9,67.2,95,76,54,29.92,29.84,12,4,18,0.00
2013-8-10,85.0,75.2,69.4,72.7,70.1,67.1,95,85,61,30.03,29.91,9,1,18,0.48
2013-8-11,79.2,72.7,66.8,71.8,68.2,63.4,94,86,74,30.05,29.95,7,3,11,0.96
2013-8-12,84.2,75.5,65.3,71.4,68.2,63.8,96,79,58,29.99,29.86,7,2,10,0.00
2013-8-13,83.9,75.1,70.1,71.2,68.1,64.2,93,80,57,29.86,29.70,7,2,12,0.04
2013-8-14,72.0,65.2,55.2,64.8,52.9,46.0,85,66,47,30.09,29.78,8,3,16,0.00
2013-8-15,71.3,60.8,48.6,54.6,51.2,46.4,92,73,51,30.16,30.06,6,2,13,0.00
2013-8-16,72.4,62.8,49.7,57.3,53.6,47.8,94,74,51,30.16,30.09,6,2,14,0.00
2013-8-17,73.8,63.3,52.1,59.9,55.5,50.1,93,77,52,30.22,30.15,9,2,15,0.02
2013-8-18,65.0,62.3,60.4,61.7,60.1,58.7,95,93,87,30.20,30.13,4,1,9,1.72
2013-8-19,76.9,67.7,61.6,68.3,64.0,60.0,95,88,70,30.16,30.01,7,2,10,0.03
2013-8-20,82.7,71.3,62.2,69.7,66.0,60.8,96,84,62,30.15,30.05,7,2,13,0.00
2013-8-21,82.1,71.7,64.5,72.5,67.2,62.8,95,86,67,30.15,30.04,7,1,15,0.15
2013-8-22,82.6,72.3,62.9,69.1,65.7,61.3,96,81,57,30.07,29.93,5,1,9,0.13
2013-8-23,77.3,66.1,60.4,68.6,63.6,58.8,95,92,71,30.09,29.92,6,1,14,1.05
2013-8-24,77.1,65.8,59.1,65.2,59.3,55.6,96,81,51,30.28,30.09,7,1,10,0.00
2013-8-25,77.3,65.9,53.3,62.6,57.2,51.6,95,76,50,30.37,30.23,7,2,11,0.00
2013-8-26,83.6,69.2,55.2,63.3,58.8,53.5,94,73,42,30.27,30.01,6,1,10,0.00
2013-8-27,86.5,74.1,62.5,70.5,65.3,59.7,91,75,54,30.02,29.87,7,2,12,0.00
2013-8-28,78.2,73.0,69.0,73.0,68.6,65.2,95,86,73,29.93,29.76,6,1,11,0.37
2013-8-29,81.6,73.3,67.5,70.7,68.6,64.7,96,86,66,29.98,29.78,5,1,8,0.00
2013-8-30,84.0,72.7,61.9,70.1,66.2,60.5,95,81,56,30.00,29.84,6,2,12,0.01
2013-8-31,86.4,73.9,65.3,73.0,67.1,62.2,94,80,57,29.88,29.76,7,2,12,0.00
2013-9-1,83.8,71.8,63.2,70.6,66.8,61.5,95,85,61,29.82,29.73,9,1,13,0.05
2013-9-2,86.2,76.1,65.9,70.6,67.8,64.4,95,77,55,29.80,29.69,7,2,11,0.00
2013-9-3,83.0,74.0,64.1,68.5,64.3,58.3,94,73,45,29.92,29.70,6,2,9,0.00
2013-9-4,80.6,67.0,55.1,63.5,58.5,52.6,94,76,41,30.05,29.92,5,1,8,0.00
2013-9-5,84.0,68.1,53.2,63.7,57.3,51.3,94,71,43,30.09,29.97,6,1,11,0.01
2013-9-6,74.4,63.8,53.5,57.7,54.1,49.4,94,73,43,30.18,30.07,6,1,11,0.00
2013-9-7,79.3,66.0,52.6,63.9,57.0,47.4,92,75,36,30.10,29.91,7,2,13,0.00
2013-9-8,86.2,72.1,60.1,69.3,63.0,57.3,93,75,52,29.97,29.83,6,1,11,0.00
2013-9-9,74.6,70.1,65.1,66.0,61.7,54.3,84,75,63,30.12,29.97,8,3,13,0.00
2013-9-10,88.9,75.2,63.0,72.2,67.2,60.9,95,78,53,30.15,30.05,7,2,10,0.00
2013-9-11,87.6,76.9,66.5,73.3,69.2,64.6,94,78,58,30.12,29.97,7,2,11,0.00
2013-9-12,88.0,75.9,66.3,71.4,66.4,61.3,95,74,48,29.98,29.71,10,2,15,0.00
2013-9-13,74.7,67.2,58.3,62.7,54.8,44.3,90,66,35,29.90,29.68,10,4,15,0.00
2013-9-14,65.7,56.8,46.5,50.6,46.2,42.1,87,69,52,30.13,29.90,6,2,11,0.00
2013-9-15,75.4,60.2,43.7,58.6,51.2,41.6,94,74,50,30.20,30.06,8,2,13,0.00
2013-9-16,59.1,56.7,55.3,55.3,54.1,53.0,93,91,87,30.07,30.03,1,0,3,0.00
2013-9-24,62.9,60.1,57.2,56.5,54.9,53.1,88,83,79,29.94,29.91,3,1,5,0.00
2013-9-25,71.9,59.8,50.0,58.9,53.1,48.3,96,80,52,29.94,29.84,6,1,9,0.00
2013-9-26,74.0,61.6,52.6,57.5,52.7,45.1,94,75,37,30.04,29.87,6,1,9,0.03
2013-9-27,69.8,59.3,46.0,56.3,51.7,44.1,94,77,55,30.18,30.03,8,2,10,0.00
2013-9-28,62.9,58.6,51.7,55.2,52.1,49.6,94,80,65,30.25,30.17,6,1,9,0.00
2013-9-29,68.9,59.6,51.1,53.5,50.8,47.9,93,74,52,30.17,30.01,7,1,12,0.00
2013-9-30,75.0,60.8,47.1,58.1,52.1,45.0,93,75,51,30.05,29.94,5,1,10,0.00
2013-10-1,78.7,65.6,54.3,60.5,56.6,52.0,93,74,48,30.06,29.96,4,1,8,0.00
2013-10-2,81.9,65.9,50.5,61.5,56.4,48.8,95,74,45,30.08,29.98,5,1,8,0.00
2013-10-3,78.3,66.0,55.2,64.1,59.4,53.3,94,81,58,30.09,30.00,7,1,13,0.00
2013-10-4,84.1,68.3,54.6,65.9,60.4,52.9,95,78,47,30.08,29.99,5,1,8,0.01
2013-10-5,83.9,70.0,57.8,66.1,61.6,56.1,95,77,50,30.08,29.96,5,1,9,0.00
2013-10-6,81.8,70.4,58.6,66.7,61.5,56.6,94,75,52,29.98,29.84,10,3,17,0.00
2013-10-7,71.2,64.2,50.1,66.6,57.8,45.8,95,81,55,30.03,29.71,9,4,16,2.16
2013-10-8,64.8,52.9,42.8,48.7,45.5,40.9,94,78,51,30.25,30.03,4,1,8,0.00
2013-10-9,56.1,50.6,45.7,49.2,46.7,43.6,93,87,76,30.28,30.19,5,1,9,0.09
2013-10-10,54.1,51.2,48.8,52.4,49.5,46.9,95,94,92,30.19,29.99,6,3,10,0.55
2013-10-11,59.9,55.9,53.0,55.8,53.6,51.5,95,92,85,29.99,29.93,7,3,12,0.01
2013-10-12,62.7,59.4,56.8,60.9,58.0,55.4,96,95,92,30.11,29.96,5,2,9,0.17
2013-10-13,59.9,57.4,55.9,58.7,56.2,54.8,96,96,94,30.26,30.10,4,1,7,0.62
2013-10-14,65.8,57.8,52.6,58.4,55.4,51.2,97,92,77,30.27,30.17,3,0,5,0.02
2013-10-15,65.1,56.8,52.4,57.5,53.1,50.5,97,88,68,30.20,30.06,4,0,7,0.01
2013-10-16,68.1,60.0,52.7,59.3,54.9,50.3,93,84,72,30.06,29.88,6,1,11,0.00
2013-10-17,68.1,64.4,58.7,62.0,59.0,51.2,95,83,75,29.86,29.70,8,4,15,0.04
2013-10-18,65.7,55.1,46.2,51.5,43.5,38.7,89,66,41,29.99,29.82,5,2,12,0.00
2013-10-19,62.5,52.5,42.6,54.5,46.6,40.6,94,81,65,29.95,29.75,9,2,17,0.00
2013-10-20,60.4,49.4,37.4,44.7,36.6,32.9,85,63,40,30.08,29.86,5,2,11,0.00
2013-10-21,64.1,50.3,35.6,45.7,40.5,33.3,92,72,43,30.12,29.92,10,2,15,0.00
2013-10-22,66.0,53.7,43.0,47.5,44.3,41.1,94,72,49,29.92,29.77,9,2,16,0.01
2013-10-23,54.1,47.0,41.8,46.3,39.6,30.8,94,77,54,29.92,29.63,8,3,18,0.04
2013-10-24,47.7,42.1,34.5,33.3,29.9,24.6,75,62,52,30.14,29.91,11,4,18,0.00
2013-10-25,51.2,38.2,28.2,30.2,26.3,24.5,88,65,36,30.33,30.13,7,2,13,0.00
2013-10-26,54.5,40.8,25.3,33.0,26.4,22.2,90,61,32,30.32,29.96,11,3,17,0.00
2013-10-27,60.9,48.3,36.1,39.0,35.5,31.1,84,63,41,30.10,29.97,8,2,14,0.00
2013-10-28,65.2,48.0,33.3,44.5,38.4,31.0,92,72,41,30.25,30.10,7,1,10,0.00
2013-10-29,64.3,52.6,39.5,47.6,43.5,37.4,94,73,52,30.34,30.23,7,2,13,0.00
2013-10-30,66.6,58.6,51.6,56.9,51.6,44.4,93,78,66,30.27,30.09,7,2,13,0.08
2013-10-31,70.1,62.5,54.2,57.8,55.1,51.8,94,78,60,30.12,29.71,13,4,24,0.00
2013-11-1,73.8,66.5,53.5,60.9,55.1,47.5,91,69,40,29.72,29.54,13,6,24,0.07
2013-11-2,65.7,53.2,42.4,51.3,40.8,33.2,94,67,33,29.90,29.61,9,3,17,0.00
2013-11-3,55.3,45.1,32.9,38.7,31.5,25.6,85,61,33,30.39,29.89,11,2,21,0.00
2013-11-4,46.6,36.6,27.6,30.3,25.9,22.5,86,66,50,30.58,30.38,6,2,8,0.00
2013-11-5,51.9,43.2,31.5,44.4,33.8,24.7,87,70,55,30.60,30.43,6,2,9,0.00
2013-11-6,68.7,56.5,48.1,50.9,47.3,42.1,88,72,52,30.43,30.02,10,3,15,0.00
2013-11-7,61.9,53.5,39.4,53.9,43.1,25.6,85,69,47,30.06,29.85,11,4,19,0.00
2013-11-8,49.3,40.7,30.6,27.7,24.8,22.1,76,54,35,30.30,30.07,10,3,15,0.00
2013-11-9,55.9,40.9,26.2,29.5,26.5,22.4,86,60,33,30.32,30.06,8,2,12,0.00
2013-11-10,63.1,50.5,37.4,36.3,29.0,21.7,69,45,21,30.23,29.95,12,6,21,0.00
2013-11-11,61.2,44.9,30.7,30.8,27.0,23.9,81,53,25,30.28,30.00,7,2,12,0.00
2013-11-12,50.4,37.1,24.9,34.9,23.4,13.9,68,57,45,30.40,29.95,11,4,19,0.00
2013-11-13,31.9,26.2,24.5,17.8,16.1,14.5,70,65,55,30.50,30.39,7,2,9,0.00
2013-11-14,59.4,46.2,28.1,22.8,17.5,-99.9,70,36,19,30.37,30.23,9,-2,16,0.00
2013-11-15,62.6,44.6,26.7,43.9,24.3,10.2,91,53,13,30.27,30.15,7,2,14,0.14
2013-11-16,53.6,48.0,42.6,49.8,46.2,41.3,96,94,87,30.25,30.17,9,2,14,0.11
2013-11-17,63.5,55.8,50.8,58.7,53.2,49.1,96,91,84,30.18,29.70,11,6,17,0.05
2013-11-18,64.4,56.8,45.4,59.1,36.7,24.1,90,50,26,29.92,29.66,12,6,22,0.07
2013-11-19,45.7,40.1,32.6,28.4,26.0,24.6,73,57,45,30.35,29.92,9,4,14,0.00
2013-11-20,44.6,35.7,28.9,28.0,24.5,20.3,86,65,38,30.50,30.35,7,2,11,0.00
2013-11-21,48.6,41.6,34.2,40.2,35.0,28.1,83,77,69,30.52,30.36,8,2,12,0.00
2013-11-22,64.8,56.1,45.2,54.3,49.1,40.3,87,78,68,30.36,29.99,7,2,12,0.00
2013-11-23,58.0,44.9,29.9,47.8,28.5,11.1,81,56,21,30.18,29.98,12,5,20,0.00
2013-11-24,29.8,23.8,17.3,12.9,5.5,2.2,67,45,34,30.53,30.18,13,6,22,0.00
2013-11-25,34.3,25.8,15.0,15.6,10.0,6.3,78,53,36,30.54,30.32,11,3,15,0.00
2013-11-26,40.6,35.2,31.7,38.7,28.5,13.8,95,79,43,30.34,29.61,9,2,14,1.78
2013-11-27,36.9,33.4,24.8,35.1,28.1,12.0,95,82,56,30.09,29.53,13,5,26,0.17
2013-11-28,38.8,28.8,21.2,21.4,16.7,12.4,81,61,42,30.43,30.08,8,3,16,0.00
2013-11-29,40.6,30.2,18.4,25.6,21.0,15.7,90,70,49,30.68,30.42,5,1,8,0.00
2013-11-30,37.2,29.7,19.2,22.9,20.3,15.9,88,69,54,30.67,30.34,9,2,13,0.00
2013-12-1,52.1,36.8,20.7,34.3,25.3,17.5,89,66,38,30.33,29.99,8,1,11,0.00
2013-12-2,53.1,45.1,40.8,36.1,34.9,33.3,78,68,50,29.99,29.80,6,1,8,0.00
2013-12-3,57.7,46.8,38.4,41.8,37.7,34.0,86,71,53,29.96,29.82,7,2,11,0.00
2013-12-4,60.6,51.6,43.1,50.6,45.3,38.0,87,79,65,30.01,29.92,9,3,13,0.00
2013-12-5,65.3,59.0,52.1,59.8,54.7,49.6,93,86,74,30.00,29.89,8,3,11,0.00
2013-12-6,66.0,51.7,38.4,61.4,49.6,36.6,95,93,84,30.09,29.82,9,3,19,1.01
2013-12-7,40.2,35.9,28.2,36.5,31.7,24.8,94,85,74,30.50,30.06,7,3,11,0.07
2013-12-8,32.9,28.4,26.4,30.9,25.2,22.3,94,88,78,30.52,30.26,6,2,10,0.00
2013-12-9,53.7,40.1,31.9,47.6,36.3,30.1,95,87,72,30.26,30.00,11,2,16,0.89
2013-12-10,40.9,34.9,28.1,36.7,28.1,16.9,94,77,56,30.21,29.92,11,2,20,0.36
2013-12-11,42.6,32.6,27.0,22.2,18.4,14.7,74,56,41,30.37,30.20,10,4,16,0.00
2013-12-12,35.5,29.8,23.9,20.8,10.9,1.2,67,46,24,30.37,30.24,9,4,17,0.00
2013-12-13,43.4,33.5,27.4,23.4,14.3,10.2,68,46,31,30.31,30.21,10,4,16,0.00
2013-12-14,34.6,33.2,31.6,32.3,29.7,22.2,95,87,66,30.27,29.74,5,1,8,0.24
2013-12-15,44.2,37.3,32.6,36.3,29.4,23.4,95,74,55,29.95,29.64,12,5,21,0.06
2013-12-16,42.1,36.4,33.3,30.1,27.3,24.8,78,70,58,30.10,29.92,9,5,13,0.00
2013-12-17,51.9,38.9,28.3,36.8,31.6,25.4,89,76,54,30.06,29.88,13,4,21,0.04
2013-12-18,41.6,34.6,29.3,26.2,20.7,18.3,69,57,40,30.20,29.97,10,4,16,0.00
2013-12-19,62.2,43.4,28.7,30.7,25.2,19.6,76,53,25,30.19,30.10,12,2,23,0.00
2013-12-20,65.2,48.1,33.8,40.9,32.1,25.7,81,58,23,30.10,29.98,8,1,14,0.00
2013-12-21,68.6,57.9,42.8,59.6,48.3,36.9,82,71,54,30.02,29.85,12,4,20,0.00
2013-12-22,69.6,64.0,59.2,61.6,57.5,53.6,90,80,71,29.97,29.78,14,6,23,0.25
2013-12-23,62.8,52.2,34.2,58.9,46.9,27.1,95,83,64,30.17,29.87,8,3,12,0.68
2013-12-24,37.5,29.6,19.5,26.8,18.9,6.9,89,65,42,30.44,30.15,12,4,20,0.00
2013-12-25,31.5,23.7,14.2,13.5,11.2,8.1,83,60,43,30.53,30.33,9,3,15,0.00
2013-12-26,45.7,32.6,22.9,25.7,18.3,11.4,77,57,36,30.35,30.21,12,3,20,0.00
2013-12-27,49.2,33.9,21.3,24.7,19.6,15.3,86,60,31,30.43,30.31,9,2,16,0.00
2013-12-28,54.5,37.9,23.4,29.3,23.3,18.8,84,60,29,30.35,30.11,9,2,13,0.00
2013-12-29,50.6,43.2,38.5,44.8,38.7,28.5,95,85,60,30.12,29.57,12,3,15,1.27
2013-12-30,45.1,41.3,33.6,37.2,31.5,26.0,78,68,56,30.11,29.81,12,3,16,0.01
2013-12-31,42.3,35.9,32.3,27.3,21.5,15.9,80,57,40,30.30,30.08,16,6,29,0.00
2014-1-1,47.9,36.0,25.6,26.1,22.2,17.5,81,58,39,30.36,30.07,12,3,17,0.00
2014-1-2,38.5,32.1,28.5,31.7,27.5,23.3,93,84,63,30.07,29.59,6,1,8,0.11